Strona główna
METAR-TAF:

METAR-TAF

Lotnisko :

Hazen, Dakota Północna, Stany Zjednoczone

Szerokość geograficzna: 47-17-24N, Długość geograficzna: 101-34-52W, wysokość: 553 m

Aktualna obserwacja pogody

Raport powstał 19 minut temu, godzina 12:15 UTC
Wiatr 9 kt od południowy zachód
Temperatura -1°C
Wilgotność 74%
Ciśnienie 1000 hPa
Widzialność: 16.1 km
bezchmurnie

METAR: KHZE 261215Z AUTO 23009KT 10SM CLR M01/M05 A2953 RMK AO2

czas: 06:34 (12:34 UTC)


TAF: brakujący

Obserwacja i prognoza pogody dla ponad 4000 lotnisk (raport METAR i TAF).

Dostępne stacje oznaczono żółtymi i czerwonymi punktami na mapie.

Najedź kursorem aby zobaczyć nazwę stacji.

Kliknij aby zobaczyć obserwacje i prognozy pogody.

Aby zmienić mapę: kliknij na zielony przycisk z czarnym krzyżykiem, aby powiększyć; na zielony przycisk z myślnikiem, aby pomniejszyć; na zielone strzałki, aby przejść do map sąsiednich.


METAR-TAF: